Location: ???? ??
(36.0534°N, 43.5630°E)
Time: 07:40:52
(UTC+00:00)

Cosmos 2366 rocket - Pass Details

Date: 18 September 2019
Orbit: 955 x 997 km, 82.9° (Epoch: 22 October)

Event Time Altitude Azimuth Distance (km) Brightness Sun altitude
Rises 17:05:21 0° 358° (N) 3,721 7.3 -23.7°
Reaches altitude 10° 17:07:57 10° 3° (N) 2,769 6.6 -24.2°
Maximum altitude 17:14:11 54° 80° (E) 1,197 4.1 -25.4°
Enters shadow 17:14:12 54° 81° (E) 1,197 4.1 -25.4°
